WA1ENO Weather Reports


time (UTC)temp
C
wind
direction
speed
KPH
gust
KPH
rain 1hr
cm
rain 24hr
cm
rain mn
cm
humidity
%
barometer
mb
20260506195506 16 202 20.9 40.2 0.00 0.00 0.00 2 1007.1
20260506195007 16 203 16.1 35.4 0.00 0.00 0.00 2 1007.1
20260506194006 16 194 22.5 38.6 0.00 0.00 0.00 2 1007.1
20260506193508 16 192 25.7 46.7 0.00 0.00 0.00 2 1007.0
20260506193007 17 207 17.7 35.4 0.00 0.00 0.00 2 1007.2
20260506192506 17 201 22.5 48.3 0.00 0.00 0.00 2 1007.1
20260506191506 17 201 19.3 45.1 0.00 0.00 0.00 2 1007.2
20260506191006 17 233 19.3 37.0 0.00 0.00 0.00 2 1007.2
20260506190507 17 202 20.9 37.0 0.00 0.00 0.00 2 1007.0
20260506190007 17 205 19.3 45.1 0.00 0.00 0.00 2 1006.9
20260506185506 17 199 16.1 35.4 0.00 0.00 0.00 2 1006.9
20260506185007 17 196 19.3 38.6 0.00 0.00 0.00 2 1007.2
20260506184506 17 209 22.5 38.6 0.00 0.00 0.00 2 1007.1
20260506184006 17 198 19.3 35.4 0.00 0.00 0.00 2 1007.2
20260506183506 17 206 20.9 46.7 0.00 0.00 0.00 2 1007.3
20260506183007 17 201 25.7 41.8 0.00 0.00 0.00 2 1007.3
20260506182506 18 200 25.7 45.1 0.00 0.00 0.00 2 1007.2
20260506182006 18 203 17.7 41.8 0.00 0.00 0.00 2 1007.3
20260506181506 18 198 20.9 46.7 0.00 0.00 0.00 2 1007.4
20260506180507 18 207 16.1 46.7 0.00 0.00 0.00 2 1007.7
20260506175506 18 205 19.3 41.8 0.00 0.00 0.00 2 1007.8
20260506175006 18 198 19.3 41.8 0.00 0.00 0.00 2 1007.9
20260506174006 18 224 20.9 41.8 0.00 0.00 0.00 2 1008.0
20260506172506 18 216 32.2 51.5 0.00 0.00 0.00 2 1007.8
20260506172007 19 199 25.7 56.3 0.00 0.00 0.00 2 1007.9
20260506171506 18 209 24.1 45.1 0.00 0.00 0.00 2 1007.8
20260506171006 18 203 19.3 49.9 0.00 0.00 0.00 2 1007.9
20260506170506 18 198 25.7 45.1 0.00 0.00 0.00 2 1007.9
20260506170007 18 196 25.7 38.6 0.00 0.00 0.00 2 1008.2
20260506165506 18 205 20.9 53.1 0.00 0.00 0.00 2 1008.1
20260506165007 18 200 29.0 56.3 0.00 0.00 0.00 2 1008.3
20260506164506 18 205 20.9 38.6 0.00 0.00 0.00 2 1008.3
20260506164008 19 204 20.9 32.2 0.00 0.00 0.00 2 1008.3
20260506163506 19 198 19.3 40.2 0.00 0.00 0.00 2 1008.4
20260506163006 19 200 11.3 24.1 0.00 0.00 0.00 2 1008.4
20260506162505 19 214 16.1 38.6 0.00 0.00 0.00 2 1008.5
20260506161506 18 192 22.5 38.6 0.00 0.00 0.00 2 1008.6
20260506161006 19 198 16.1 33.8 0.00 0.00 0.00 2 1008.6
20260506160506 19 191 22.5 35.4 0.00 0.00 0.00 2 1008.7
20260506160006 19 193 20.9 40.2 0.00 0.00 0.00 2 1008.8
20260506155506 19 187 24.1 38.6 0.00 0.00 0.00 2 1008.8
20260506155006 20 203 12.9 37.0 0.00 0.00 0.00 2 1008.9
20260506154506 18 189 22.5 35.4 0.00 0.00 0.00 2 1009.2
20260506153506 18 195 20.9 35.4 0.00 0.00 0.00 2 1009.3
20260506153006 18 186 19.3 35.4 0.00 0.00 0.00 2 1009.4
20260506152506 18 189 17.7 33.8 0.00 0.00 0.00 2 1009.4
20260506152006 18 193 22.5 37.0 0.00 0.00 0.00 2 1009.5
20260506151507 18 202 16.1 37.0 0.00 0.00 0.00 2 1009.4
20260506151006 18 205 19.3 46.7 0.00 0.00 0.00 2 1009.4
20260506150508 18 203 19.3 38.6 0.00 0.00 0.00 2 1009.5
20260506145508 18 201 22.5 46.7 0.00 0.00 0.00 2 1009.5
20260506145008 18 205 24.1 38.6 0.00 0.00 0.00 2 1009.4
20260506144508 18 203 22.5 38.6 0.00 0.00 0.00 2 1009.1
20260506144008 18 192 20.9 45.1 0.00 0.00 0.00 2 1009.1
20260506143509 18 197 19.3 40.2 0.00 0.00 0.00 2 1009.2
20260506143008 19 194 17.7 38.6 0.00 0.00 0.00 2 1009.3
20260506142508 18 184 22.5 40.2 0.00 0.00 0.00 2 1009.2
20260506142008 18 197 20.9 37.0 0.00 0.00 0.00 2 1009.2
20260506141508 18 193 22.5 40.2 0.00 0.00 0.00 2 1009.2
20260506141008 18 195 19.3 35.4 0.00 0.00 0.00 2 1009.0
20260506140508 18 192 20.9 32.2 0.00 0.00 0.00 2 1009.2
20260506140008 18 201 14.5 29.0 0.00 0.00 0.00 2 1009.1
20260506135508 18 185 22.5 33.8 0.00 0.00 0.00 2 1009.4
20260506134509 18 187 16.1 29.0 0.00 0.00 0.00 2 1009.7
20260506134008 17 188 20.9 35.4 0.00 0.00 0.00 2 1009.7
20260506133508 17 207 20.9 33.8 0.00 0.00 0.00 2 1009.9
20260506133008 17 198 22.5 33.8 0.00 0.00 0.00 2 1009.9
20260506132508 17 192 20.9 37.0 0.00 0.00 0.00 2 1009.8
20260506132008 17 196 20.9 33.8 0.00 0.00 0.00 2 1009.8
20260506131008 17 196 16.1 29.0 0.00 0.00 0.00 2 1009.8
20260506130507 17 198 17.7 25.7 0.00 0.00 0.00 2 1009.8
20260506130008 16 200 19.3 29.0 0.00 0.00 0.00 2 1009.9
20260506125508 16 197 16.1 35.4 0.00 0.00 0.00 2 1009.8
20260506125008 16 209 11.3 32.2 0.00 0.00 0.00 2 1009.8
20260506124508 16 199 20.9 38.6 0.00 0.00 0.00 2 1009.7
20260506123508 15 188 22.5 33.8 0.00 0.00 0.00 2 1009.6
20260506123008 15 196 20.9 35.4 0.00 0.00 0.00 2 1009.6
20260506122007 16 192 16.1 25.7 0.00 0.00 0.00 2 1010.0
20260506121507 15 198 14.5 27.4 0.00 0.00 0.00 2 1010.1
20260506121007 15 205 17.7 29.0 0.00 0.00 0.00 2 1010.2
20260506120508 15 191 22.5 35.4 0.00 0.00 0.00 2 1010.1
20260506120007 15 200 27.4 41.8 0.00 0.00 0.00 2 1010.2
20260506115509 15 196 16.1 38.6 0.00 0.00 0.00 2 1010.1
20260506115008 15 192 22.5 35.4 0.00 0.00 0.00 2 1010.3
20260506114508 16 188 16.1 27.4 0.00 0.00 0.00 2 1010.2
20260506113508 15 204 20.9 38.6 0.00 0.00 0.00 2 1010.3
20260506112508 15 198 17.7 33.8 0.00 0.00 0.00 2 1010.2
20260506112008 15 204 19.3 32.2 0.00 0.00 0.00 2 1010.3
20260506111508 15 205 14.5 27.4 0.00 0.00 0.00 2 1010.2
20260506111008 15 194 16.1 22.5 0.00 0.00 0.00 2 1010.2
20260506110508 15 204 11.3 29.0 0.00 0.00 0.00 2 1010.2
20260506110008 15 204 16.1 29.0 0.00 0.00 0.00 2 1010.3
20260506105508 15 203 12.9 24.1 0.00 0.00 0.00 2 1010.4
20260506105008 15 200 14.5 24.1 0.00 0.00 0.00 2 1010.4
20260506104508 15 199 14.5 25.7 0.00 0.00 0.00 2 1010.3
20260506104008 15 203 19.3 35.4 0.00 0.00 0.00 2 1010.3
20260506103508 15 197 11.3 29.0 0.00 0.00 0.00 2 1010.3
20260506103008 15 216 14.5 24.1 0.00 0.00 0.00 2 1010.2
20260506102508 15 213 14.5 25.7 0.00 0.00 0.00 2 1010.2
20260506101507 15 214 12.9 24.1 0.00 0.00 0.00 2 1010.1
20260506101007 14 199 14.5 27.4 0.00 0.00 0.00 2 1010.1
20260506100507 14 193 16.1 32.2 0.00 0.00 0.00 2 1010.0
20260506100007 15 193 14.5 25.7 0.00 0.00 0.00 2 1010.0
20260506095507 14 202 11.3 27.4 0.00 0.00 0.00 2 1010.0
20260506095007 14 200 16.1 25.7 0.00 0.00 0.00 2 1010.0
20260506093007 14 199 11.3 27.4 0.00 0.00 0.00 2 1010.0
20260506092508 15 196 16.1 25.7 0.00 0.00 0.00 2 1009.9
20260506092008 15 200 16.1 25.7 0.00 0.00 0.00 2 1009.9
20260506091007 15 197 14.5 33.8 0.00 0.00 0.00 2 1010.0
20260506090507 15 200 11.3 32.2 0.00 0.00 0.00 2 1010.0
20260506090007 15 206 12.9 35.4 0.00 0.00 0.00 2 1010.0
20260506085507 15 203 22.5 37.0 0.00 0.00 0.00 2 1010.2
20260506085007 15 208 16.1 29.0 0.00 0.00 0.00 2 1010.2
20260506084507 15 206 19.3 35.4 0.00 0.00 0.00 2 1010.1
20260506084007 15 194 16.1 25.7 0.00 0.00 0.00 2 1010.2
20260506083508 15 193 16.1 29.0 0.00 0.00 0.00 2 1010.2
20260506083008 15 196 14.5 25.7 0.00 0.00 0.00 2 1010.1
20260506082508 15 200 16.1 27.4 0.00 0.00 0.00 2 1010.1
20260506082007 15 201 16.1 29.0 0.00 0.00 0.00 2 1010.1
20260506081508 15 198 16.1 29.0 0.00 0.00 0.00 2 1010.2
20260506081007 15 207 17.7 37.0 0.00 0.00 0.00 2 1010.2
20260506080507 15 201 16.1 29.0 0.00 0.00 0.00 2 1010.1
20260506073508 15 216 16.1 25.7 0.00 0.00 0.00 2 1010.1
20260506072508 15 193 17.7 33.8 0.00 0.00 0.00 2 1010.1
20260506072007 15 197 20.9 32.2 0.00 0.00 0.00 2 1010.0
20260506071507 15 209 14.5 37.0 0.00 0.00 0.00 2 1009.9